Regional Weather Roundup
Issued by NWS Wakefield, VA

Home | Current Version | Previous Version | Graphics & Text | Print | Product List | Glossary On
Versions: 1 2 3 4 5 6 7 8 9 10 11 12 13 14 15 16 17 18 19 20 21 22 23 24 25 26 27 28 29 30 31 32 33 34 35 36 37 38 39 40 41 42 43 44 45 46 47 48 49 50
000
ASUS41 KAKQ 222110
RWRAKQ

REGIONAL WEATHER ROUNDUP
NATIONAL WEATHER SERVICE WAKEFIELD VA
400 PM EST MON DEC 22 2014

Note: "fair" indicates few or no clouds below 12,000 feet with no
significant weather and/or obstructions to visibility. * = Denotes
station may not report precipitation (e.g., rain,snow,etc.),
thunder or fog.

VAZ042-051-052>054-056-222200-
NORTHERN VIRGINIA

CITY           SKY/WX    TMP DP  RH WIND       PRES   REMARKS
WASH NATIONAL  LGT RAIN  37  32  81 N7        30.18R
DULLES         LGT RAIN  33  31  92 N6        30.17R FOG
FORT BELVOIR   MIX PCPN  36  32  87 NE3       30.17S FOG
QUANTICO       LGT RAIN  36  33  89 NE7       30.18R FOG
FREDERICKSBRG* DRIZZLE   36  36 100 N3        30.14S
STAFFORD*      HVY RAIN  34  34 100 N6        30.19S
WARRENTON      DRZL/FOG  34  34 100 N6        30.15F VSB 1
CULPEPER*      DRZL/FOG  36  36 100 N6        30.17R VSB 1
MANASSAS*      NOT AVBL
LEESBURG*      MIX PCPN  34  34 100 N7        30.18S
WINCHESTER     DRIZZLE   34  30  86 CALM      30.16R
FRONT ROYAL*   CLOUDY    32  32 100 NE3       30.15R
LURAY*         LGT RAIN  34  34 100 NE5       30.15R VSB 1
$$

VAZ048-049-060>072-079>083-222200-
CENTRAL AND SOUTH CENTRAL VIRGINIA

CITY           SKY/WX    TMP DP  RH WIND       PRES   REMARKS
RICHMOND       CLOUDY    37  36  93 NW6       30.12R FOG
CHESTERFIELD*  CLOUDY    37  27  65 N7        30.12R
PETERSBURG*    DRIZZLE   39  38  98 N9        30.10F
HANOVER        MIX PCPN  36  34  92 N6        30.13R FOG
TAPPAHANNOCK*  CLOUDY    38  35  89 N6        30.11S FOG
QUINTON*       CLOUDY    38  37  97 N3        30.10R
CHARLOTTSVILLE LGT RAIN  33  32  96 N3        30.15R FOG
GORDONSVILLE*  CLOUDY    33  32  96 CALM      30.15R FOG
ORANGE*        DRIZZLE   34  34 100 N3        30.16R
LOUISA*        DRIZZLE   36  34  93 N6        30.12F
BUMPASS*       CLOUDY    34  33  96 N6        30.12F
FARMVILLE*     CLOUDY    37  37 100 N6        30.13S FOG
CREWE*         CLOUDY    35  34  95 N3        30.09F
FORT PICKETT*  CLOUDY    36  35  96 N9        30.08S
CHASE CITY*    CLOUDY    37  37 100 N7        30.08S
CLARKSVILLE*   CLOUDY    36  36 100 N8        30.07S
SOUTH HILL*    CLOUDY    37  36  96 N8        30.12F
LAWRENCEVILLE* CLOUDY    38  37  99 N6        30.07F
EMPORIA*       CLOUDY    37  37 100 NW6       30.08F FOG
$$

VAZ088>098-222200-
SOUTHEAST VIRGINIA

CITY           SKY/WX    TMP DP  RH WIND       PRES   REMARKS
NORFOLK        CLOUDY    48  45  89 N13       30.04S
VIRGINIA BEACH CLOUDY    51  49  92 NE16      30.03R
NORFOLK NAVAL  DRIZZLE   50  46  86 NE18      30.03F FOG
WEST POINT*    CLOUDY    42  40  91 N5        30.09S
SALUDA*        CLOUDY    41  40  95 NE9       30.06F
NEWPORT NEWS   CLOUDY    46  43  89 NE12G20   30.03F FOG
LANGLEY AFB    LGT RAIN  45  43  93 NE14      30.03F FOG
FORT EUSTIS    CLOUDY    45 N/A N/A NE6       30.03R
WILLIAMSBURG*  CLOUDY    45  45 100 N3        30.07R VSB 1
HR EXEC AP*    CLOUDY    48  45  87 NE14G21   30.03F
FRANKLIN*      CLOUDY    45 N/A N/A NW3       30.05R
WAKEFIELD      CLOUDY    42  40  92 N5        30.07R FOG
$$

VAZ020-022-025-037-045-222200-
WEST CENTRAL AND SOUTHWEST VIRGINIA

CITY           SKY/WX    TMP DP  RH WIND       PRES   REMARKS
STAUNTON*      DRIZZLE   34  32  92 CALM      30.15R
WAYNESBORO*    CLOUDY    32  32 100 CALM      30.11R VSB 1
HOT SPRINGS VA SNOW      31  31 100 E6        29.97R VSB<1/4
LYNCHBURG      CLOUDY    33  33 100 N7        30.11R FOG
DANVILLE       CLOUDY    37  33  85 NE9       30.10R FOG
SOUTH BOSTON*  CLOUDY    35  34  95 N5        30.09S
MARTINSVILLE   CLOUDY    36  36 100 N6        30.10S FOG
ROANOKE        DRIZZLE   36  35  96 CALM      30.11R FOG
BLACKSBURG     CLOUDY    33  32  96 E5        30.07S FOG
DUBLIN*        CLOUDY    36  36 100 E7        30.04S FOG
MARION*        CLOUDY    37  36  94 E7        30.01S FOG
HILLSVILLE*    FOG       36  36  99 NE5       30.00S VSB 1
RICHLANDS*     PTCLDY    47  37  68 SE9G16    29.91S
WISE*          MOSUNNY   55  37  50 SE8       29.88F
ABINGDON*      MOSUNNY   54  41  61 E16       29.90F
$$

MDZ021>025-VAZ099-100-222200-
SOUTHERN MARYLAND AND THE DELMARVA PENINSULA

CITY           SKY/WX    TMP DP  RH WIND       PRES   REMARKS
PATUXENT RIVER LGT RAIN  37  34  89 N12       30.12F FOG
BAY BRIDGE APT LGT RAIN  36  34  93 N7        30.16F
LEONARDTOWN    CLOUDY    36  34  93 N6        30.13F
DOVER          LGT RAIN  41  40  98 N8        30.14F
GEORGETOWN     CLOUDY    41  39  93 NE9       30.14F FOG
EASTON         RAIN      39  39 100 NE6       30.18F
CAMBRIDGE      CLOUDY    41  37  87 N8        30.12F
SALISBURY      CLOUDY    45  41  86 NE10      30.11F FOG
OCEAN CITY     CLOUDY    44  42  93 NE12      30.12F FOG
WALLOPS ISLAND CLOUDY    44  43  96 E18G26    30.10S
ACCOMACK*      LGT RAIN  46  43  87 NE15G22   30.07F
$$

NCZ012>017-030>032-222200-
NORTH CENTRAL AND EASTERN NORTH CAROLINA

CITY           SKY/WX    TMP DP  RH WIND       PRES   REMARKS
ROANOKE RAPIDS CLOUDY    37  37 100 N9        30.05F FOG
RALEIGH        DRIZZLE   38  35  89 NE6       30.06R FOG
ELIZABETH CITY CLOUDY    56  51  84 N8        30.00R
AHOSKIE*       CLOUDY    43  42  96 N6        30.04R FOG
EDENTON*       DRIZZLE   50  50  99 N9        29.99F
CURRITUCK*     CLOUDY    53  51  94 NE8       29.99F
KILL DEVIL HLS FOG       55  55 100 N5        29.95S VSB 1
MANTEO         CLOUDY    55  55  99 N5        29.96S
CAPE HATTERAS  CLOUDY    54  54 100 N6        29.95R
TARBORO*       NOT AVBL
GOLDSBORO      CLOUDY    42  42  99 VRB6      29.98F
WASHINGTON     CLOUDY    46  45  95 N8        30.01F
GREENVILLE     CLOUDY    43  43 100 NE7       30.03F
NEW BERN       CLOUDY    50  46  86 N6        30.02R
WILMINGTON     CLOUDY    46  45  96 N6        29.99F FOG
$$

VAZ048-222200-
ELSEWHERE

CITY           SKY/WX    TMP DP  RH WIND       PRES   REMARKS
HARRISBURG PA  CLOUDY    36  27  69 CALM      30.18F
BALTIMORE      DRIZZLE   35  33  92 N3        30.17F FOG
ANNAPOLIS      LGT RAIN  36  33  89 N7        30.16F FOG
ANDREWS AFB    LGT RAIN  34  32  93 NE9       30.14  FOG
PHILADELPHIA   CLOUDY    44  35  70 NE9       30.20F
HENDERSON NC   CLOUDY    37  35  94 N7        30.06S FOG
GREENSBORO     DRIZZLE   35  34  96 NE13      30.05R FOG
ROCKY MOUNT    CLOUDY    41  39  93 N9        30.04S
$$

VAZ100-222200-
MARINE

STATION/POSITION TIME  TEMP    WIND        PRES    WAVE   SWELL
                       AIR SEA DIR/SP/G            HT/PER HT/PER
                 (UTC) (F)     (DEG/KT/KT) (MB)    (FT/S) (FT/S)
CAPE MAY NJ      2100   43 44   60/  8/ 12 1020.7F
LEWES DE         2100   43 41   70/ 12/ 14 1020.7F
15NM E FENWICK I 2100   47 45              1019.9F   3/ 9
OCEAN-CITY-INLET 2100      43   60/  4/  9 1019.6F
WACHAPREAGUE VA  2100   46 41   40/ 14/ 19 1018.7R
THOMAS POINT MD  2100   36 41   20/ 15/ 16 1021.9F
GOOSES REEF MD   2100   36     VRB 14/ 16  1019.2F
COVE POINT MD    2100   36      30/ 14/ 17 1020.1S
SOLOMONS ISLAND  2100      42                N/A
BISHOPS HEAD MD  2100   40 38   20/  8/ 12 1018.9S
PINEY POINT MD   2100           40/  8/ 11   N/A
POTOMAC MD       2100   39      30/ 14/ 17 1018.7F
CAMBRIDGE MD     2100   38 39   30/ 10/ 11 1019.8F
LEWISETTA VA     2100   39 41   40/  7/ 10 1018.8F
RAPPAHANNOCK LGT 2100           30/ 14/ 15 1018.6F
STINGRAY PT      2100   42      40/ 16/ 19 1018.5F
YORK RVR RNG VA  2100   43      50/ 22/ 24 1016.1F
YORKTOWN VA      2100   43 45   40/ 14/ 16 1016.9F
JAMESTOWN VA     2100   42      60/  6/ 12   N/A
DOMINION TERM VA 2100   45      60/ 12/ 18 1016.4F
KIPTOPEKE VA     2100      48   40/ 12/ 16   N/A
CHES BAY BRIDGE  2100      45   10/ 18/ 21 1016.5F
CAPE HENRY VA    2100   48      30/ 18/ 20 1015.7R
CHESAPEAKE LGHT  2000   50      60/ 29/ 31 1016.2F
WILLOUBY STN VA  2100   46      40/ 20/ 22 1016.9F
S CRANEY ISL VA  2100           50/ 14/ 17 1016.5F
CAPE HENRY BUOY  2100      48                N/A     7/ 6
1ST LANDING BUOY 2100   48      30/ 16/ 21 1016.6R
CAPE CHARLES BUO 2100      46                N/A     6/ 6   2/12
64NM E OF VA BCH 2100   59 54   60/ 17/ 21 1014.7R   8/ 7
DUCK PIER NC     2100   53 46   10/ 17/ 21 1013.7F
44100 DUCK FRF   2100      51                N/A     9/ 7
44056 DUCK FRF   2100      48                N/A     9/ 8
OREGON INLET NC  2100   56 48   40/  2/  3 1014.3S
HATTERAS NC      2100      53  350/  4/  5 1014.7R
DIAMOND SHLS NC  2100   71                 1013.6R   9/ 8
CAPE LOOKOUT NC  2000   51     330/  9/ 11 1014.4F
$$



USA.gov is the U.S. government's official web portal to all federal, state and local government web resources and services.